[[{"header":{"parameterUnit":"m.s-1","parameterCategory":1,"la1":30.2991,"la2":30.254,"lo1":-89.0895,"lo2":-89.0444,"dy":0.0017,"dx":0.0017,"nx":28,"ny":28,"refTime":"2025-03-17T09:00:00:Z","depth":0,"parameterNumber":2,"parameterNumberName":"U-component_of_WINDS"},"data":[0,0,0,0,0,0,0,0,0,0,0,0,0,0,0,0,0,0,0,0,0,0,0,0,0,0,0,0,0,0,0,0,0,0,0,0,0,0,0,0,0,0,0,0,0,0,0,0,0,0,0,0,0,0,0,0,0,0,-3.2771,-3.2772,0,-3.2876,-3.2877,-3.2878,-3.2876,-3.2874,-3.2873,-3.2871,-3.298,-3.2984,-3.2989,0,0,0,0,0,0,0,0,0,0,0,0,0,-3.2571,-3.2575,-3.2771,-3.2772,-3.2773,-3.2876,-3.2877,-3.2879,-3.2876,-3.2874,-3.2872,-3.2871,-3.2979,-3.2984,-3.2989,0,0,0,0,0,0,0,0,0,0,0,0,0,-3.2665,-3.2576,-3.2771,-3.2784,-3.2787,-3.2876,-3.2877,-3.2879,-3.2876,-3.2874,-3.2872,-3.287,-3.2977,-3.2983,-3.299,-3.3072,0,0,-3.3009,-3.3012,0,0,0,0,0,0,0,0,-3.266,-3.2673,-3.2781,-3.2784,-3.2786,-3.2861,-3.2847,-3.2944,-3.2877,-3.2842,-3.2871,-3.2869,-3.2942,-3.2951,-3.2976,-3.3077,-3.3082,-3.301,-3.3013,-3.3016,-3.3018,0,0,0,0,0,0,0,-3.2654,-3.2668,-3.2812,-3.2783,-3.2786,-3.2787,-3.2798,-3.2865,-3.2903,-3.2845,-3.2845,-3.2858,-3.2943,-3.297,-3.2978,-3.3083,-3.3009,-3.3015,-3.3019,-3.3021,-3.326,-3.3263,0,0,0,0,0,0,-3.2644,-3.2663,-3.2809,-3.2816,-3.2717,-3.2792,-3.2804,-3.2839,-3.2902,-3.291,-3.2859,-3.2857,-3.296,-3.2971,-3.2982,-3.3084,-3.3016,-3.3022,-3.3026,-3.3258,-3.3261,-3.3264,0,0,0,0,0,0,-3.264,-3.2657,-3.2805,-3.2739,-3.2758,-3.2798,-3.2837,-3.2842,-3.2868,-3.2913,-3.292,-3.2879,-3.2959,-3.2973,-3.305,-3.3087,-3.3025,-3.3031,-3.3255,-3.3259,-3.3262,-3.3286,0,0,0,0,0,0,-3.2634,-3.2655,-3.2686,-3.274,-3.2762,-3.287,-3.2839,-3.2846,-3.2879,-3.2877,-3.2933,-3.2941,-3.2958,-3.3041,-3.3056,-3.3095,-3.3036,-3.3252,-3.3257,-3.3261,-3.3282,-3.329,-3.3297,0,0,0,0,0,-3.2627,-3.2688,-3.2687,-3.2705,-3.2801,-3.2872,-3.2884,-3.2903,-3.2882,-3.2914,-3.2943,-3.2939,-3.3081,-3.3049,-3.3066,-3.3107,-3.3249,-3.3255,-3.3261,-3.3279,-3.3289,-3.3297,0,0,0,0,0,0,-3.2636,-3.2695,-3.2695,-3.2776,-3.2819,-3.2871,-3.2911,-3.2912,-3.2963,-3.2959,-3.298,-3.2993,-3.307,-3.3097,-3.3059,-3.3192,-3.3163,-3.3172,-3.3171,-3.3181,-3.3188,-3.3179,-3.3041,0,0,0,0,0,-3.2648,-3.2701,-3.275,-3.2816,-3.2838,-3.2871,-3.2903,-3.2914,-3.296,-3.2978,-3.3013,-3.3058,-3.3113,-3.3149,-3.3202,-3.3288,-3.33,-3.3325,-3.3332,-3.3338,-3.3346,-3.3395,-3.3406,-3.3282,-3.3282,-3.3282,0,0,-3.2672,-3.2711,-3.2743,-3.2819,-3.2854,-3.2909,-3.2886,-3.2945,-3.2986,-3.2987,-3.3061,-3.3089,-3.3141,-3.3223,-3.3261,-3.3248,-3.3383,-3.3346,-3.335,-3.3354,-3.3402,-3.3413,-3.3424,-3.3286,-3.3286,-3.3285,0,0,-3.2744,-3.2779,-3.2838,-3.2874,-3.2928,-3.295,-3.2965,-3.3018,-3.3037,-3.3112,-3.3115,-3.3165,-3.3259,-3.3297,-3.3328,-3.342,-3.3418,-3.3437,-3.3475,-3.3523,-3.3532,-3.3541,-3.3574,-3.3585,-3.3444,-3.3444,-3.3444,0,-3.2767,-3.2849,-3.2869,-3.2928,-3.2963,-3.2967,-3.3029,-3.3063,-3.3131,-3.3156,-3.314,-3.326,-3.3296,-3.3387,-3.341,-3.3435,-3.3454,-3.3429,-3.3529,-3.3538,-3.3547,-3.3578,-3.359,-3.3446,-3.3446,-3.3446,-3.3446,0,-3.2875,-3.2932,-3.2975,-3.3041,-3.308,-3.314,-3.3171,-3.3209,-3.3218,-3.3243,-3.3321,-3.3365,-3.3427,-3.3451,-3.3459,-3.3545,-3.3535,-3.3524,-3.3495,-3.356,-3.359,-3.3602,-3.3449,-3.3448,-3.3448,-3.3447,0,0,-3.2952,-3.3031,-3.3046,-3.3077,-3.3139,-3.3184,-3.3246,-3.3308,-3.334,-3.3389,-3.3441,-3.3523,-3.3515,-3.3551,-3.3564,-3.3606,-3.3677,-3.3591,-3.3593,-3.3605,-3.3775,-3.3781,-3.3794,-3.3677,-3.368,-3.3682,-3.377,0,-3.303,-3.3138,-3.316,-3.3254,-3.3308,-3.3316,-3.337,-3.3415,-3.3441,-3.3492,-3.3521,-3.3578,-3.3563,-3.3585,-3.3627,-3.3659,-3.3711,-3.3653,-3.3727,-3.3729,-3.3712,-3.381,-3.3816,-3.3897,-3.3782,-3.3784,-3.3785,0,-3.3133,-3.3185,-3.3285,-3.3341,-3.3365,-3.3413,-3.3473,-3.3521,-3.3573,-3.3589,-3.3631,-3.3642,-3.3708,-3.3679,-3.3771,-3.3732,-3.3764,-3.3785,-3.3789,-3.3795,-3.376,-3.3818,-3.3923,-3.3935,-3.3804,-3.3802,-3.3801,0,-3.3179,-3.3274,-3.3346,-3.3373,-3.344,-3.3474,-3.3504,-3.3554,-3.3591,-3.3644,-3.3669,-3.3729,-3.3762,-3.3809,-3.3837,-3.3812,-3.3928,-3.39,-3.3944,-3.3943,-3.3965,-3.3963,-3.4076,-3.3989,-3.3989,-3.3988,-3.3988,0,-3.3262,-3.3323,-3.3368,-3.3412,-3.3481,-3.3508,-3.3576,-3.3606,-3.3651,-3.3703,-3.3714,-3.3763,-3.3796,-3.385,-3.3872,-3.3946,-3.3961,-3.3977,-3.3982,-3.3975,-3.3973,-3.3995,-3.3989,-3.3992,-3.3991,-3.399,-3.399,0,-3.3323,-3.3355,-3.3435,-3.3494,-3.351,-3.3559,-3.361,-3.3654,-3.3682,-3.3748,-3.3765,-3.3809,-3.3873,-3.3906,-3.3986,-3.4001,-3.4084,-3.4086,-3.4066,-3.4068,-3.411,-3.4105,-3.424,-3.4259,-3.4159,-3.416,-3.4161,0,-3.3373,-3.342,-3.3485,-3.352,-3.3551,-3.3608,-3.3646,-3.3675,-3.3715,-3.3779,-3.3817,-3.3882,-3.3935,-3.4038,-3.4078,-3.414,-3.4143,-3.4186,-3.4152,-3.4145,-3.4143,-3.4139,-3.4145,-3.4191,-3.4192,-3.4193,-3.4193,0,-3.3458,-3.3473,-3.3527,-3.3588,-3.3633,-3.3682,-3.3731,-3.3759,-3.3797,-3.3841,-3.3907,-3.3949,-3.4032,-3.4097,-3.4163,-3.4195,-3.4201,-3.4205,-3.4218,-3.421,-3.4197,-3.4204,-3.4081,-3.4201,-3.42,-3.4199,-3.4199,-3.4199,-3.3515,-3.3558,-3.3611,-3.3671,-3.3712,-3.3758,-3.3803,-3.3837,-3.3892,-3.3962,-3.3977,-3.4047,-3.4101,-3.419,-3.4226,-3.4282,-3.4273,-3.4292,-3.4297,-3.4301,-3.4303,-3.4189,-3.4294,-3.4294,-3.4294,-3.4294,-3.4294,0,-3.36,-3.3636,-3.3691,-3.3759,-3.3808,-3.3811,-3.3866,-3.3906,-3.3968,-3.4018,-3.4071,-3.4148,-3.4212,-3.4258,-3.4324,-3.4361,-3.4365,-3.4377,-3.4374,-3.4381,-3.4307,-3.4289,-3.4372,-3.4372,-3.4372,-3.4372,-3.4372,-3.4372,-3.365,-3.3723,-3.3745,-3.3839,-3.3875,-3.3943,-3.3974,-3.4018,-3.4058,-3.4144,-3.4197,-3.4227,-3.4277,-3.4347,-3.4406,-3.4419,-3.4442,-3.4453,-3.4466,-3.4395,-3.4386,-3.4378,-3.4361,-3.4459,-3.4459,-3.4535,-3.4536,-3.4536]},{"header":{"parameterUnit":"m.s-1","parameterCategory":1,"la1":30.2991,"la2":30.254,"lo1":-89.0895,"lo2":-89.0444,"dy":0.0017,"dx":0.0017,"nx":28,"ny":28,"refTime":"2025-03-17T09:00:00:Z","depth":0,"parameterNumber":3,"parameterNumberName":"V-component_of_WINDS"},"data":[0,0,0,0,0,0,0,0,0,0,0,0,0,0,0,0,0,0,0,0,0,0,0,0,0,0,0,0,0,0,0,0,0,0,0,0,0,0,0,0,0,0,0,0,0,0,0,0,0,0,0,0,0,0,0,0,0,0,4.3861,4.3861,0,4.3881,4.3881,4.3881,4.3911,4.3912,4.3912,4.3913,4.3928,4.3928,4.3928,0,0,0,0,0,0,0,0,0,0,0,0,0,4.3845,4.3845,4.3861,4.3861,4.3861,4.3881,4.3881,4.3881,4.3911,4.3912,4.3913,4.3913,4.3928,4.3928,4.3928,0,0,0,0,0,0,0,0,0,0,0,0,0,4.3857,4.3845,4.3861,4.3879,4.3881,4.3881,4.3881,4.3881,4.3911,4.3912,4.3913,4.3914,4.3928,4.3928,4.3928,4.3911,0,0,4.3927,4.3927,0,0,0,0,0,0,0,0,4.3856,4.3858,4.3876,4.3877,4.388,4.3895,4.3881,4.3891,4.3911,4.3899,4.3913,4.3914,4.3916,4.3917,4.3919,4.3911,4.3912,4.3927,4.3927,4.3927,4.3927,0,0,0,0,0,0,0,4.3855,4.3857,4.3869,4.3876,4.3878,4.3885,4.3887,4.3883,4.3903,4.39,4.3903,4.3905,4.3917,4.3919,4.3919,4.3912,4.3927,4.3927,4.3927,4.3927,4.3893,4.3892,0,0,0,0,0,0,4.3853,4.3856,4.3868,4.3869,4.387,4.3884,4.3887,4.3889,4.3903,4.3906,4.3904,4.3906,4.3919,4.3919,4.392,4.3902,4.3927,4.3927,4.3927,4.3894,4.3893,4.3892,0,0,0,0,0,0,4.3852,4.3853,4.3867,4.3863,4.3866,4.3884,4.3885,4.3889,4.3891,4.3906,4.3909,4.3903,4.3919,4.392,4.3913,4.3902,4.3927,4.3927,4.3895,4.3894,4.3893,4.3864,0,0,0,0,0,0,4.3852,4.3853,4.3847,4.3863,4.3866,4.3861,4.3885,4.3889,4.3891,4.3894,4.3905,4.3908,4.392,4.3914,4.3913,4.3903,4.3927,4.3896,4.3894,4.3893,4.3866,4.3862,4.3858,0,0,0,0,0,4.3851,4.3837,4.3847,4.3848,4.3859,4.386,4.3862,4.3878,4.389,4.3884,4.3894,4.3907,4.3904,4.3913,4.3913,4.3902,4.3897,4.3895,4.3893,4.3867,4.3863,4.3858,0,0,0,0,0,0,4.3817,4.3839,4.385,4.3841,4.3849,4.3866,4.3858,4.3872,4.3875,4.3877,4.3896,4.3898,4.3889,4.3895,4.3904,4.3886,4.3902,4.39,4.3883,4.3878,4.3875,4.3873,4.3927,0,0,0,0,0,4.3809,4.3809,4.3828,4.3818,4.3822,4.384,4.3841,4.3853,4.3861,4.3864,4.3873,4.3879,4.388,4.3879,4.3881,4.3867,4.387,4.386,4.3856,4.3853,4.3851,4.3845,4.3841,4.3886,4.3886,4.3886,0,0,4.3791,4.3803,4.3802,4.3812,4.3819,4.3819,4.3842,4.384,4.3839,4.3863,4.3858,4.3865,4.3873,4.3864,4.386,4.3868,4.3839,4.3851,4.3848,4.3848,4.3843,4.3839,4.3835,4.3885,4.3885,4.3885,0,0,4.3758,4.3768,4.3761,4.3769,4.3781,4.3793,4.3792,4.3807,4.3814,4.381,4.3828,4.3827,4.3827,4.3833,4.3835,4.3808,4.382,4.3807,4.3787,4.3782,4.3778,4.3775,4.3766,4.3762,4.3805,4.3805,4.3805,0,4.3734,4.3736,4.3756,4.3754,4.3758,4.3781,4.3775,4.3781,4.3791,4.3793,4.3803,4.3806,4.3812,4.3805,4.3799,4.38,4.3798,4.3806,4.3778,4.3775,4.3772,4.3763,4.376,4.3804,4.3804,4.3804,4.3804,0,4.3706,4.3707,4.37,4.3712,4.3716,4.3711,4.373,4.373,4.3743,4.3754,4.375,4.3759,4.3764,4.3763,4.3774,4.3757,4.3762,4.3774,4.3791,4.3766,4.3758,4.3755,4.3801,4.3802,4.3803,4.3803,0,0,4.365,4.3677,4.3674,4.3681,4.3697,4.3697,4.3694,4.37,4.3701,4.3708,4.3705,4.3706,4.3719,4.3722,4.3734,4.3729,4.3708,4.3742,4.3742,4.3735,4.3691,4.3681,4.3677,4.3717,4.3716,4.3716,4.369,0,4.3621,4.3619,4.3638,4.363,4.3631,4.3655,4.3652,4.3661,4.3672,4.3674,4.3685,4.3686,4.3701,4.3704,4.37,4.3711,4.3699,4.3713,4.3713,4.3713,4.3711,4.3673,4.3663,4.3638,4.3687,4.3687,4.3686,0,4.3586,4.3595,4.3587,4.3606,4.3607,4.3604,4.3613,4.3614,4.3625,4.3634,4.3639,4.3653,4.3651,4.3667,4.3664,4.3673,4.3675,4.3681,4.368,4.368,4.3698,4.3672,4.3631,4.3627,4.3681,4.3682,4.3682,0,4.3548,4.3556,4.3554,4.3559,4.358,4.3578,4.3586,4.3598,4.3602,4.3608,4.3611,4.3616,4.3619,4.3623,4.3639,4.3649,4.3634,4.3651,4.364,4.364,4.3635,4.3635,4.3593,4.3636,4.3636,4.3636,4.3636,0,4.3513,4.3507,4.3537,4.3535,4.353,4.3552,4.3546,4.3556,4.3568,4.3568,4.3588,4.3587,4.3609,4.361,4.3622,4.3618,4.3619,4.3625,4.3628,4.3623,4.3623,4.3624,4.3626,4.3635,4.3636,4.3636,4.3636,0,4.3468,4.3488,4.3487,4.3508,4.3513,4.3508,4.3526,4.3525,4.3538,4.3538,4.3539,4.3559,4.3562,4.3579,4.3585,4.3593,4.3585,4.3591,4.3582,4.3584,4.3572,4.3573,4.3529,4.3525,4.357,4.357,4.357,0,4.3445,4.3442,4.3463,4.3466,4.3475,4.3478,4.3482,4.3504,4.3507,4.3521,4.3518,4.3524,4.3529,4.3533,4.3547,4.3552,4.3559,4.3544,4.356,4.3555,4.3559,4.3559,4.3559,4.354,4.3539,4.3539,4.3538,0,4.3401,4.3412,4.3418,4.3428,4.3433,4.3442,4.3451,4.3452,4.3476,4.3478,4.3483,4.3488,4.3496,4.3501,4.3509,4.3517,4.3531,4.3534,4.3531,4.3526,4.3521,4.3524,4.3572,4.3534,4.3535,4.3535,4.3535,4.3535,4.3367,4.3366,4.3382,4.3388,4.3398,4.3407,4.3408,4.3422,4.3427,4.3437,4.3449,4.3452,4.3465,4.3478,4.3484,4.3487,4.3495,4.3491,4.349,4.3489,4.3487,4.3521,4.3488,4.3488,4.3488,4.3488,4.3489,0,4.3324,4.3337,4.3343,4.3357,4.3362,4.3378,4.339,4.3393,4.3396,4.3407,4.3413,4.3419,4.3425,4.344,4.3447,4.3446,4.3453,4.3447,4.3447,4.3449,4.3479,4.348,4.3442,4.3442,4.3442,4.3442,4.3442,4.3442,4.3303,4.3303,4.3315,4.332,4.3332,4.3337,4.3343,4.3351,4.336,4.3367,4.3373,4.3383,4.3396,4.3405,4.3411,4.3415,4.3416,4.3408,4.3415,4.3442,4.3447,4.3451,4.3453,4.3409,4.3409,4.3385,4.3385,4.3385]}]]